Location: *
(11.7485°N, 79.7483°E)
Time: 01:58:55
(UTC+00:00)

FALCON 9 DEB - Pass Details

Date: 22 January 2021
Orbit: 377 x 388 km, 53.0° (Epoch: 05 March)

Event Time Altitude Azimuth Distance (km) Brightness Sun altitude
Exits shadow 00:07:10 - 216° (SW) 2,193 6.5 -14.5°
Reaches altitude 10° 00:09:03 10° 217° (SW) 1,413 5.5 -14.0°
Maximum altitude 00:12:13 83° 304° (NW) 392 2.7 -13.3°
Drops below altitude 10° 00:15:21 10° 33° (NNE) 1,402 5.9 -12.6°
Sets 00:17:23 0° 34° (NE) 2,251 7.0 -12.1°
